WetterOnline ( http://www.wetteronline.de )

Wetter aktuell St. Wendel

Aktuelles Wetter: Tholey (398m)

6-stündlich | Neueste Meldungen
Ortszeit Temperatur Wetter
Mo, 23.07. 8:00 17.8° C wolkenlos
Mo, 23.07. 2:00 18.6° C fast wolkenlos
So, 22.07. 20:00 23.9° C wolkig
So, 22.07. 14:00 21.9° C bedeckt
So, 22.07. 8:00 15.2° C wolkig
So, 22.07. 2:00 14.6° C leicht bewölkt
Sa, 21.07. 20:00 21.4° C leichter Regen
Sa, 21.07. 14:00 23.4° C wolkig
Ortszeit Temperatur Wetter
Mo, 23.07. 13:30 26.1° C bedeckt
Mo, 23.07. 13:20 26.1° C bedeckt
Mo, 23.07. 13:10 25.9° C leicht bewölkt
Mo, 23.07. 13:00 24.3° C fast wolkenlos
Mo, 23.07. 12:50 24.3° C fast wolkenlos
Mo, 23.07. 12:40 24.2° C leicht bewölkt
Mo, 23.07. 12:30 23.9° C wolkig
Mo, 23.07. 12:00 24.1° C bewölkt
Mo, 23.07. 11:30 24.6° C wolkig
Mo, 23.07. 11:00 24.8° C wolkenlos
Mo, 23.07. 10:30 23.5° C wolkenlos
Ortszeit Relative Feuchte Sichtweite
Mo, 23.07. 8:00 74% 20 km
Mo, 23.07. 2:00 65% 30 km
So, 22.07. 20:00 50% 35 km
So, 22.07. 14:00 57% 30 km
So, 22.07. 8:00 96% 4.6 km
So, 22.07. 2:00 98% 4.3 km
Sa, 21.07. 20:00 61% 40 km
Sa, 21.07. 14:00 62% 18 km
Ortszeit Relative Feuchte Sichtweite
Mo, 23.07. 13:30 43% 17 km
Mo, 23.07. 13:20 43% -
Mo, 23.07. 13:10 43% -
Mo, 23.07. 13:00 47% 23 km
Mo, 23.07. 12:50 47% -
Mo, 23.07. 12:40 47% -
Mo, 23.07. 12:30 48% 28 km
Mo, 23.07. 12:00 49% 25 km
Mo, 23.07. 11:30 48% 20 km
Mo, 23.07. 11:00 51% 20 km
Mo, 23.07. 10:30 54% 26 km
Ortszeit Niederschlagsmenge Niederschlagsart
Mo, 23.07. 8:00 0.1 l/m2 in 12 Std. -
Mo, 23.07. 2:00 0.1 l/m2 in 6 Std. Regen
So, 22.07. 20:00 0.1 l/m2 in 12 Std. -
So, 22.07. 14:00 0.1 l/m2 in 6 Std. Regen
So, 22.07. 8:00 0.5 l/m2 in 12 Std. Regen
So, 22.07. 2:00 0.5 l/m2 in 6 Std. Regen
Sa, 21.07. 20:00 0.1 l/m2 in 12 Std. Regen
Sa, 21.07. 14:00 0.1 l/m2 in 6 Std. Regen
Ortszeit Niederschlagsmenge Niederschlagsart
Mo, 23.07. 13:30 0.0 l/m2 in 1 Std. -
Mo, 23.07. 13:20 keine Meldung -
Mo, 23.07. 13:10 keine Meldung -
Mo, 23.07. 13:00 0.0 l/m2 in 1 Std. -
Mo, 23.07. 12:50 keine Meldung -
Mo, 23.07. 12:40 keine Meldung -
Mo, 23.07. 12:30 0.0 l/m2 in 1 Std. -
Mo, 23.07. 12:00 0.0 l/m2 in 1 Std. -
Mo, 23.07. 11:30 0.0 l/m2 in 1 Std. -
Mo, 23.07. 11:00 0.0 l/m2 in 1 Std. -
Mo, 23.07. 10:30 0.0 l/m2 in 1 Std. -
Ortszeit Stärke Spitze Richtung
km/h Bft. km/h Grad Sektor
Mo, 23.07. 8:00 4 1 14 100° O
Mo, 23.07. 2:00 9 2 20 40° NO
So, 22.07. 20:00 11 2 25 50° NO
So, 22.07. 14:00 7 2 14 90° O
So, 22.07. 8:00 7 2 11 270° W
So, 22.07. 2:00 4 1 36 110° O
Sa, 21.07. 20:00 14 3 36 310° NW
Sa, 21.07. 14:00 13 3 24 240° SW
Ortszeit Stärke Spitze Richtung
km/h Bft. km/h Grad Sektor
Mo, 23.07. 13:30 13 3 17 120° SO
Mo, 23.07. 13:20 13 3 - 120° SO
Mo, 23.07. 13:10 9 2 - 130° SO
Mo, 23.07. 13:00 7 2 14 90° O
Mo, 23.07. 12:50 7 2 - 90° O
Mo, 23.07. 12:40 7 2 - 70° O
Mo, 23.07. 12:30 4 1 11 340° N
Mo, 23.07. 12:00 4 1 18 100° O
Mo, 23.07. 11:30 9 2 17 130° SO
Mo, 23.07. 11:00 7 2 14 120° SO
Mo, 23.07. 10:30 7 2 14 90° O
Ortszeit Untergrenze Bedeckung Gattung
total tief tief mittel hoch
Mo, 23.07. 8:00 - 0/8 0/8 - - -
Mo, 23.07. 2:00 3600 m 1/8 1/8 - - -
So, 22.07. 20:00 1800 m 8/8 2/8 - - -
So, 22.07. 14:00 2400 m 8/8 8/8 - - -
So, 22.07. 8:00 1800 m 7/8 5/8 - - -
So, 22.07. 2:00 <30 m 3/8 - - - -
Sa, 21.07. 20:00 1200 m 8/8 8/8 - - -
Sa, 21.07. 14:00 780 m 8/8 1/8 - - -
Ortszeit Bedeckungsgrad in Achtel und Wolkenuntergrenze
Mo, 23.07. 13:30 9 9 9
Mo, 23.07. 13:20 9 9 9
Mo, 23.07. 13:10 3(2100m)
Mo, 23.07. 13:00 1(2400m)
Mo, 23.07. 12:50 1(2400m)
Mo, 23.07. 12:40 3(2400m)
Mo, 23.07. 12:30 2(1380m) 6(2100m)
Mo, 23.07. 12:00 5(1350m) 6(1500m) 7(2100m)
Mo, 23.07. 11:30 4(1290m) 5(1500m) 6(2100m)
Mo, 23.07. 11:00 1(1200m)
Mo, 23.07. 10:30 keine Wolken
Ortszeit Luftdruck NN (hPa) Tendenz (hPa in 3 Std.)
Mo, 23.07. 8:00 1017 + 0,9
Mo, 23.07. 2:00 1016 + 0,6
So, 22.07. 20:00 1014 0,0
So, 22.07. 14:00 1015 + 0,3
So, 22.07. 8:00 1015 + 0,9
So, 22.07. 2:00 1014 + 0,4
Sa, 21.07. 20:00 1012 + 0,6
Sa, 21.07. 14:00 1012 + 0,5
Ortszeit Luftdruck NN (hPa) Tendenz (hPa in 3 Std.)
Mo, 23.07. 13:30 1017 - 0,2
Mo, 23.07. 13:20 1017 keine Meldung
Mo, 23.07. 13:10 1017 keine Meldung
Mo, 23.07. 13:00 1017 - 0,1
Mo, 23.07. 12:50 1017 keine Meldung
Mo, 23.07. 12:40 1017 keine Meldung
Mo, 23.07. 12:30 1017 + 0,1
Mo, 23.07. 12:00 1017 + 0,3
Mo, 23.07. 11:30 1017 + 0,3
Mo, 23.07. 11:00 1017 + 0,5
Mo, 23.07. 10:30 1017 + 0,7
Ortszeit Schneehöhe (cm)
Mo, 23.07. 8:00 -
Mo, 23.07. 2:00 -
So, 22.07. 20:00 -
So, 22.07. 14:00 -
So, 22.07. 8:00 -
So, 22.07. 2:00 -
Sa, 21.07. 20:00 -
Sa, 21.07. 14:00 -
Ortszeit Schneehöhe (cm)
Mo, 23.07. 13:30 -
Mo, 23.07. 13:20 -
Mo, 23.07. 13:10 -
Mo, 23.07. 13:00 -
Mo, 23.07. 12:50 -
Mo, 23.07. 12:40 -
Mo, 23.07. 12:30 -
Mo, 23.07. 12:00 -
Mo, 23.07. 11:30 -
Mo, 23.07. 11:00 -
Mo, 23.07. 10:30 -
Link zu dieser Seite / Seite empfehlen

Das Wetter in ...